Theta_e
309 309 310 310 310 311 311 311 312 311 312 311 312 313 314 315 314 314 313 313 314 316 315 315 315 314 313 312 314 317 316 316 314 312 313 313 311 311 312 312 313 312 312 313 313 314 314 313 313 315 318 318 316 318 318 315 315 317 320 318 315 317 317 317 318 317 316 316 314 310 309 313 313 309 305 304 306 307 307 306 307 306 304 304 302 299 301 303
308 308 309 309 309 309 309 309 310 310 310 310 310 311 312 313 314 313 313 312 313 315 315 315 315 314 314 313 314 316 315 315 315 314 313 312 311 311 311 312 312 312 312 312 313 314 314 313 314 315 317 318 316 317 318 315 315 317 318 317 316 319 317 315 316 315 315 315 313 311 310 311 313 311 306 308 311 308 308 308 307 306 306 304 300 300 301 302
308 308 308 308 308 308 308 308 308 309 309 309 309 309 310 311 312 312 312 311 312 314 315 315 315 315 314 314 313 314 315 315 315 316 314 311 310 310 310 310 311 312 312 312 312 312 313 313 314 315 316 316 315 316 318 315 316 316 316 317 317 318 316 313 313 313 313 312 312 311 309 309 311 310 307 310 312 309 310 311 309 308 309 306 301 301 301 302
308 308 308 308 308 308 308 308 308 308 309 309 309 309 309 309 310 311 311 311 311 313 315 315 315 315 314 314 313 314 316 316 317 315 313 311 310 310 310 309 310 312 312 311 312 311 312 312 313 314 315 316 315 314 315 314 315 315 315 318 317 314 315 314 312 312 310 309 312 311 308 308 309 308 308 310 312 311 312 312 312 311 311 308 303 301 302 302
309 309 308 308 308 308 309 309 309 309 309 309 309 308 309 309 309 310 310 311 311 312 315 314 315 316 315 315 313 314 315 317 317 314 312 311 310 310 311 310 310 312 311 311 311 311 312 312 313 315 316 316 316 316 315 312 312 315 314 314 313 312 314 313 310 310 308 307 309 309 309 309 308 307 308 310 312 314 313 312 312 312 312 309 303 302 302 302
310 310 309 309 309 309 309 309 309 309 309 309 309 309 309 308 308 309 309 310 310 313 315 315 315 315 315 314 313 315 316 316 316 314 313 311 311 311 311 310 310 312 311 311 311 312 313 313 314 315 315 315 316 315 314 310 309 314 314 311 310 311 313 311 309 309 307 308 310 309 310 308 308 309 309 308 311 313 311 307 308 308 309 308 304 303 302 302
311 310 310 309 309 309 309 309 309 309 309 309 309 309 309 308 308 308 309 309 310 313 315 315 315 315 314 313 314 315 317 317 315 314 313 311 311 311 311 310 310 311 311 311 312 314 315 314 314 315 315 316 314 313 312 309 308 312 314 311 310 309 311 310 308 307 306 308 309 307 307 308 310 310 308 307 309 311 308 304 303 303 305 306 304 302 302 303
310 310 311 310 310 310 309 310 310 310 310 309 309 309 309 308 308 308 308 309 310 313 314 314 315 315 314 314 316 316 317 316 315 315 314 312 311 311 312 310 310 311 310 311 312 315 316 315 314 313 316 315 313 313 310 309 310 312 313 312 310 308 310 309 306 306 306 307 306 305 308 309 309 308 306 307 309 310 308 304 302 302 303 304 303 302 302 303
309 310 310 310 310 310 310 310 310 310 310 310 310 309 309 308 308 308 308 309 310 313 314 313 315 315 314 315 317 317 317 316 314 314 314 312 312 311 312 311 310 311 311 311 311 313 316 315 313 313 315 314 312 313 309 311 313 312 312 312 310 310 310 308 307 307 306 306 306 306 311 310 306 306 308 310 309 309 308 305 302 302 302 303 303 302 302 302
309 309 309 309 310 310 310 310 310 310 310 310 310 309 309 308 308 307 308 309 310 313 314 313 315 315 315 316 317 316 316 314 313 313 313 312 312 311 311 310 310 311 311 311 310 312 315 316 314 312 314 312 311 311 309 311 312 309 310 310 310 310 309 307 308 307 305 306 306 308 312 309 305 306 312 311 305 304 306 304 301 302 303 303 302 302 302 303
309 308 308 308 309 309 309 310 310 310 310 310 309 309 309 308 308 307 308 308 310 314 314 313 315 315 316 316 317 317 315 313 313 312 311 311 312 311 311 310 310 310 311 311 311 311 312 313 311 311 314 313 311 310 308 308 308 307 307 310 309 309 309 307 307 307 306 308 306 307 310 308 305 306 312 310 301 301 305 304 301 301 303 303 302 302 302 302
309 309 308 308 308 308 308 309 309 309 309 309 309 309 309 308 308 307 307 308 311 314 314 314 314 315 315 315 316 317 314 312 312 311 310 311 311 311 310 310 310 310 310 312 311 310 311 311 310 312 313 312 312 311 309 306 306 306 307 311 312 310 311 309 307 306 307 309 305 306 309 309 308 309 311 308 301 301 303 304 302 301 303 303 302 301 300 301
309 309 309 309 308 308 308 308 308 308 309 309 309 309 308 308 307 307 308 308 311 314 314 314 314 314 315 316 315 314 314 313 312 311 310 310 310 310 310 309 310 310 310 311 311 310 310 310 310 312 310 310 312 309 307 306 305 307 307 310 312 313 313 309 306 305 307 308 304 306 311 313 312 311 311 307 301 302 303 304 304 302 302 301 301 300 300 300
309 309 309 308 308 308 308 307 307 307 308 308 308 308 308 308 307 307 307 309 312 314 314 314 313 314 315 314 313 313 313 313 312 310 310 310 310 310 310 310 310 310 310 310 310 310 309 309 309 311 308 308 309 306 308 307 306 309 309 310 313 313 312 310 306 307 309 307 304 308 312 314 315 314 312 306 302 303 305 306 305 303 302 300 300 300 299 300
309 309 309 308 308 308 308 307 307 307 307 308 308 308 308 307 307 307 308 311 313 315 314 314 314 314 315 314 313 312 313 312 311 311 310 310 311 311 310 310 310 310 310 310 310 309 309 309 310 312 308 305 306 309 312 312 310 310 310 312 315 312 313 313 307 307 311 307 304 309 312 314 315 315 310 303 301 303 305 307 306 304 303 301 300 299 299 299
310 309 309 309 308 308 308 307 307 306 306 307 308 308 308 307 307 307 309 312 314 315 314 314 314 314 315 314 312 312 312 312 312 311 310 310 310 311 310 310 310 310 310 309 309 309 309 310 310 309 308 307 310 312 315 314 313 312 311 312 315 313 313 313 307 304 307 308 306 309 312 314 314 313 306 299 300 302 303 306 306 305 303 302 301 300 299 299
311 310 309 309 308 308 308 307 307 306 306 307 307 308 308 307 307 308 311 313 315 314 314 316 314 313 313 312 312 313 312 312 312 312 311 310 309 310 310 310 310 310 310 310 310 310 310 311 309 309 309 309 310 313 315 313 313 314 313 312 314 314 311 311 310 305 304 307 309 309 309 311 312 312 309 302 301 303 304 306 307 306 305 303 302 301 299 299
311 310 310 309 309 309 307 307 307 306 306 306 307 308 307 307 308 310 313 315 314 312 313 314 312 312 312 311 312 312 311 312 313 312 311 310 309 309 310 310 309 310 312 311 310 311 312 312 311 313 313 310 310 314 314 314 314 314 313 312 312 312 311 311 311 307 304 306 308 309 309 310 311 311 312 308 304 304 306 307 307 307 306 304 303 301 300 299
311 311 310 309 309 309 307 306 306 306 306 306 307 308 307 309 309 310 312 313 313 313 313 313 312 312 313 312 312 312 311 312 313 312 310 309 309 309 309 309 311 312 312 313 313 312 313 314 314 315 316 314 313 314 315 316 316 314 314 313 313 312 312 313 311 305 304 307 308 309 310 310 311 310 311 310 307 305 306 307 308 308 306 305 304 303 301 299
311 310 310 309 309 308 307 306 306 306 306 307 308 308 308 311 311 311 310 309 311 312 313 314 313 314 315 313 312 311 312 312 311 311 310 309 309 309 309 309 313 313 312 315 317 312 311 315 317 316 317 316 315 314 314 315 313 313 315 315 314 314 313 313 310 303 302 307 308 309 309 309 310 310 310 310 308 307 307 307 307 308 307 306 305 304 301 300
311 310 310 309 309 308 307 307 307 306 307 309 309 309 309 309 310 310 308 309 311 309 309 311 309 311 312 311 311 311 312 312 310 310 310 309 309 310 310 310 313 313 314 317 315 310 311 315 317 317 317 315 314 312 311 311 310 311 314 314 314 314 313 312 308 302 302 306 309 309 309 309 309 309 309 309 309 308 308 308 308 309 308 307 307 305 303 301
311 310 310 309 309 309 308 307 307 306 307 309 309 309 308 307 309 308 306 310 314 308 308 309 306 308 309 307 309 311 312 312 311 311 310 309 309 311 311 311 312 314 314 314 313 313 314 316 317 316 314 311 309 308 308 309 310 310 312 313 313 314 313 311 307 303 303 305 309 309 308 309 309 309 310 310 310 309 309 310 310 310 310 309 308 306 304 302
311 311 310 309 308 308 308 307 306 307 309 310 310 308 306 308 309 308 307 311 312 310 311 311 309 310 310 308 309 310 310 311 311 312 310 308 309 311 311 311 311 314 313 312 314 316 316 315 313 311 310 309 308 305 306 309 309 311 312 312 314 315 314 312 308 303 303 305 307 308 307 309 309 309 310 310 309 309 309 309 310 310 310 310 310 308 305 303
312 311 310 309 308 308 307 306 306 308 309 310 309 307 307 309 309 308 310 312 311 311 312 310 310 312 313 310 309 310 310 311 310 310 309 309 310 310 310 311 311 312 312 312 314 315 316 313 307 306 308 311 310 305 306 310 311 312 313 313 314 315 313 311 309 305 306 306 304 306 309 310 312 313 312 310 307 307 306 306 307 309 309 309 309 307 305 304
313 312 310 310 309 308 306 306 307 308 309 309 308 307 308 310 309 308 310 312 312 311 310 309 310 313 312 309 309 310 311 312 311 309 307 308 309 309 309 310 311 312 313 312 312 314 315 308 305 309 308 310 312 308 308 312 313 313 313 314 313 313 312 311 309 308 310 311 306 307 310 311 314 314 314 312 309 309 308 307 309 310 310 309 306 305 305 305
313 313 311 310 310 308 307 308 308 308 310 309 308 307 307 309 310 308 307 311 313 312 311 310 312 313 311 309 310 310 312 311 307 305 306 307 309 309 310 309 309 311 312 311 311 314 313 304 306 313 311 311 313 311 312 312 312 314 313 313 311 311 312 311 309 309 312 313 308 307 311 313 313 312 313 315 312 311 313 313 313 313 312 311 307 305 306 305
313 313 311 311 310 309 309 309 308 309 310 309 308 308 306 307 309 307 306 308 311 313 313 311 311 312 311 309 308 310 312 310 305 304 305 306 308 309 310 311 309 308 307 310 313 313 311 305 306 311 312 313 312 313 314 310 312 315 311 310 309 309 311 310 310 310 311 311 308 308 311 312 312 312 312 314 312 312 313 313 314 314 314 312 309 306 306 306
313 313 312 311 310 310 310 309 310 310 310 309 308 308 307 306 307 308 306 306 310 315 315 311 309 309 309 307 306 309 309 308 310 308 302 303 306 307 310 311 311 310 306 310 315 312 310 311 310 310 311 312 312 314 313 311 313 313 306 305 307 307 309 309 309 310 308 308 310 311 310 311 313 312 311 311 312 312 312 312 313 314 315 313 309 307 306 305
313 313 312 311 310 309 309 309 311 310 310 309 308 308 308 306 306 307 307 307 313 316 313 311 310 309 309 308 308 309 307 307 310 307 302 304 306 306 309 309 309 310 306 308 316 315 310 307 308 310 312 313 312 308 307 312 313 307 303 305 306 306 306 307 308 309 308 309 313 312 310 311 313 313 309 308 310 311 312 313 313 314 315 313 310 307 305 304
314 314 313 311 310 309 309 309 310 310 310 309 309 308 307 307 307 308 309 310 313 313 310 310 311 311 311 311 312 310 308 308 306 304 305 305 305 305 305 305 306 310 309 308 312 313 306 301 303 309 310 310 307 301 301 307 308 304 305 308 308 307 305 305 306 308 309 313 314 313 312 311 312 314 312 310 310 312 313 313 313 314 314 312 310 307 305 303
315 315 313 312 311 310 309 310 310 310 310 309 308 307 307 308 308 310 311 310 310 312 312 312 312 312 312 315 317 311 310 310 306 305 307 306 306 306 306 308 309 311 312 311 312 312 307 305 306 308 307 305 305 303 301 301 302 305 308 310 311 311 308 307 307 308 311 315 312 309 311 311 312 313 312 311 311 311 313 313 313 315 314 314 314 309 304 303
316 316 314 312 311 310 309 311 310 310 310 309 307 306 307 309 309 309 308 307 310 314 316 317 313 312 313 316 318 313 312 313 307 306 308 308 308 308 309 313 313 313 314 314 314 314 312 311 310 308 305 305 310 309 304 302 302 306 309 310 314 315 312 313 312 310 313 314 309 305 308 310 311 311 311 310 310 310 312 313 315 316 314 316 318 311 305 302
317 316 315 312 312 310 309 309 309 310 311 308 306 307 307 309 310 311 308 307 313 315 315 317 314 313 313 315 317 313 313 314 308 306 309 310 309 310 312 313 314 316 314 313 314 314 314 313 309 309 307 306 310 312 310 308 304 306 310 312 314 315 315 316 314 310 312 314 308 303 306 309 309 310 311 310 310 310 310 312 314 315 315 316 315 309 306 302
318 317 316 313 312 311 310 309 309 311 310 306 306 308 308 308 311 313 312 310 313 313 313 315 313 313 314 315 315 313 313 315 309 306 309 309 308 311 312 311 311 314 312 311 312 313 315 315 311 311 311 308 309 312 315 312 306 307 311 312 314 315 314 314 311 309 311 313 308 304 307 311 310 310 312 311 310 311 311 311 310 310 311 311 306 303 303 300
319 318 316 314 312 311 310 310 310 310 309 307 308 310 309 310 310 311 312 310 312 314 313 311 313 315 314 314 313 312 314 316 311 308 309 310 310 312 312 311 310 311 313 313 312 312 313 315 314 310 309 308 309 313 314 312 309 308 308 310 313 313 312 311 312 311 311 312 310 307 309 311 310 310 310 311 311 310 310 311 309 307 308 307 304 303 302 299
319 317 316 315 312 312 311 310 310 310 308 308 310 310 309 309 310 312 312 308 311 316 314 311 314 315 313 313 314 313 313 313 311 311 311 310 311 312 313 314 311 309 312 315 315 314 312 314 312 306 306 304 304 307 309 310 311 308 307 310 311 311 311 311 312 310 308 311 313 311 311 311 311 311 309 309 311 310 309 309 309 309 309 308 307 306 303 301
317 316 315 314 313 313 311 310 311 309 308 310 312 311 310 310 310 312 311 307 309 314 314 312 313 314 314 314 315 315 314 311 310 312 313 311 312 313 313 314 312 309 311 313 316 318 314 314 311 307 309 303 296 301 306 307 308 307 308 311 310 309 309 309 311 311 310 312 314 313 312 312 312 312 308 308 309 309 308 308 308 308 308 308 309 308 303 302
317 315 315 314 313 314 312 310 310 309 308 310 312 313 313 310 307 307 309 309 309 313 314 312 311 314 316 314 314 314 313 313 312 311 313 312 313 314 313 314 313 310 310 312 317 320 316 315 313 305 306 302 296 302 308 305 304 305 306 307 308 310 311 309 310 312 312 313 313 314 314 312 312 312 310 309 309 308 308 308 307 307 306 306 307 306 302 301
316 315 316 315 314 314 312 310 310 310 309 309 310 312 312 310 308 308 309 309 311 312 312 311 311 312 315 314 315 314 312 314 314 311 312 313 313 313 312 314 315 311 309 310 314 317 314 313 314 304 301 303 302 304 309 308 304 302 303 304 305 308 311 310 310 311 312 313 313 314 315 314 313 313 312 312 310 309 309 308 308 307 306 306 305 304 302 302
315 316 316 314 313 313 311 310 310 311 311 311 312 313 312 311 310 311 308 307 311 311 309 312 313 310 313 315 314 313 313 314 314 312 313 312 312 313 310 313 317 313 309 309 313 316 314 313 315 306 300 305 306 306 310 311 308 304 305 306 305 306 307 308 308 308 310 312 312 313 314 313 312 312 311 310 311 311 310 309 309 308 307 307 305 303 303 303
315 317 316 312 313 312 310 310 312 312 312 312 312 312 311 309 309 311 310 307 309 309 308 310 312 309 311 312 311 311 312 314 313 311 312 311 311 312 311 312 316 313 308 308 311 314 314 314 315 311 306 307 310 309 309 311 311 308 307 308 308 308 308 309 310 309 308 310 312 312 313 313 311 312 310 309 310 312 311 310 310 309 308 306 304 303 302 302
316 319 315 312 312 311 310 311 311 311 312 312 313 312 312 311 309 309 309 307 307 308 307 308 309 309 310 311 311 312 313 315 315 311 312 313 311 311 312 312 312 311 310 310 311 314 317 317 315 314 314 312 309 304 301 305 309 309 307 309 309 309 309 311 313 311 308 309 310 309 311 313 313 313 312 311 312 312 311 311 310 309 307 305 304 302 301 300
317 317 313 310 311 311 311 311 309 309 311 311 313 313 313 313 312 310 309 308 308 309 308 309 309 309 308 310 312 311 311 314 316 313 312 315 313 310 312 313 310 311 312 311 312 314 316 316 314 313 315 314 307 299 297 301 306 308 307 307 308 308 309 311 310 309 309 310 309 308 309 312 312 313 313 312 313 313 311 310 310 309 307 305 305 303 300 299
316 313 309 309 311 311 313 313 311 310 310 310 311 312 312 312 312 311 310 309 309 309 308 308 308 308 309 310 309 309 309 310 313 314 313 314 313 310 312 313 310 310 311 311 312 312 312 314 315 313 314 315 311 306 303 302 303 306 306 306 307 308 309 309 307 306 308 311 310 310 311 312 311 313 312 311 311 311 308 305 305 308 307 306 305 302 300 298
316 312 309 309 310 311 314 316 314 312 310 310 312 312 312 312 312 311 311 310 308 308 307 308 308 308 309 310 308 308 309 308 309 311 311 311 311 309 311 312 309 309 312 315 314 312 313 315 314 312 313 315 314 313 311 307 304 305 305 304 307 308 308 308 308 308 310 311 310 310 311 311 310 312 312 309 308 308 305 302 301 302 304 304 303 301 300 299
317 316 312 309 309 310 312 313 314 314 312 311 312 312 312 312 312 312 312 312 310 307 308 310 310 308 308 309 307 307 309 309 310 310 309 311 311 310 308 307 308 311 313 315 313 312 316 316 312 312 313 313 313 313 313 310 306 306 306 305 305 307 309 309 309 310 311 310 310 311 311 311 311 310 310 310 309 308 306 305 304 303 302 301 300 301 302 301
317 318 315 311 310 311 311 311 312 313 313 313 312 313 313 313 313 312 312 313 312 311 311 311 310 309 309 309 308 308 309 309 310 309 308 309 310 309 306 304 307 309 308 311 311 311 315 315 312 313 313 311 312 311 311 311 308 307 308 307 306 307 309 310 310 310 310 309 310 311 311 312 311 310 309 310 309 309 309 308 308 306 304 301 300 302 302 300
317 318 316 313 314 313 311 311 312 312 313 313 313 314 314 314 314 313 313 313 312 312 313 313 311 310 310 310 310 310 310 310 310 309 309 309 309 308 307 307 308 307 306 308 309 309 311 312 312 313 313 312 311 310 310 311 310 309 309 308 307 306 307 309 310 309 310 310 311 311 311 311 311 309 309 310 309 310 309 308 308 307 305 303 303 303 302 300
316 318 315 313 316 316 312 311 311 311 312 313 313 314 315 315 315 314 314 313 312 312 313 314 313 312 310 311 312 312 311 312 312 311 310 309 310 310 309 308 309 307 307 308 309 309 311 311 311 311 311 312 311 311 311 311 310 309 309 309 309 307 307 308 308 308 309 310 310 310 310 311 310 309 309 310 310 309 309 308 308 307 306 305 305 305 304 302
314 316 315 314 315 315 313 312 312 312 312 312 313 313 314 315 315 315 314 314 314 313 312 313 314 313 313 313 312 312 311 311 313 313 312 311 311 311 310 310 311 308 307 308 309 309 310 311 311 311 312 312 311 311 311 310 310 310 310 310 310 309 308 308 308 308 308 308 308 309 309 309 309 309 309 309 309 308 308 307 307 307 306 306 305 306 306 304
310 312 312 313 313 314 314 313 313 313 312 312 312 313 313 314 314 315 315 314 314 314 313 312 313 313 314 313 312 312 311 311 311 311 312 313 312 312 312 313 314 311 308 308 308 308 309 310 311 311 312 313 312 311 311 310 310 310 309 309 309 309 309 309 309 309 308 308 308 308 309 308 308 308 308 308 307 307 307 307 307 307 306 306 306 306 306 306
307 307 308 309 310 313 314 313 312 313 313 312 312 312 313 313 313 314 315 314 313 314 313 313 313 313 314 314 313 312 311 311 311 310 310 311 312 313 315 315 315 313 309 308 308 307 308 310 310 311 312 312 312 312 312 311 312 312 310 309 309 309 309 309 309 309 309 309 309 309 309 308 308 308 308 308 308 307 307 307 307 307 306 306 306 306 306 306
Wind_Speed
12 13 14 15 16 16 17 17 18 18 19 19 19 18 18 18 17 18 18 19 18 11 7 8 5 6 7 6 6 5 5 8 6 4 6 6 4 4 3 2 2 2 2 2 1 6 6 3 3 5 5 3 1 0 2 1 1 2 2 3 4 2 2 3 5 4 1 0 4 7 9 10 7 6 4 2 5 6 5 7 7 6 7 4 1 2 8 19
11 12 13 14 15 16 17 18 18 18 18 18 19 18 18 18 17 17 18 18 18 13 7 8 6 4 7 8 8 8 7 9 7 6 8 7 5 3 2 2 3 3 1 2 3 6 5 4 4 5 4 2 1 0 2 0 1 2 1 3 4 2 1 1 3 3 2 0 2 5 7 8 6 5 6 6 8 8 8 9 8 10 12 9 6 6 13 21
11 11 12 13 14 15 16 17 18 18 18 18 18 18 18 17 17 17 17 17 18 14 8 8 7 4 5 7 8 8 7 8 6 6 8 8 6 4 2 1 2 3 2 2 3 4 4 4 7 6 2 1 1 0 1 0 1 2 1 5 3 1 2 2 4 4 3 0 1 4 5 6 5 3 6 7 7 8 12 11 9 12 16 13 11 12 16 21
10 10 11 12 13 14 15 15 16 17 17 18 18 18 18 18 18 17 17 17 17 14 9 8 7 4 4 6 7 5 4 5 4 3 9 10 7 4 2 2 2 2 1 1 3 3 3 6 7 3 2 2 1 1 2 1 1 1 2 4 1 2 3 3 5 4 2 1 2 4 4 6 4 3 5 6 7 10 13 14 13 14 16 13 13 15 19 22
9 10 11 12 12 13 14 15 15 16 17 17 18 18 18 18 18 17 17 17 17 14 9 8 7 4 3 5 7 4 2 3 1 5 8 8 6 3 2 2 1 1 1 1 3 5 5 5 4 2 1 2 2 2 2 2 2 2 2 2 1 2 3 1 3 2 3 1 2 4 4 4 3 4 9 8 11 11 5 8 12 14 11 10 15 16 18 20
10 11 11 12 12 13 13 14 15 15 16 17 17 18 18 18 18 18 18 17 17 13 8 7 6 4 2 3 6 4 3 3 1 5 7 6 5 2 1 1 1 1 2 2 2 4 3 3 3 3 1 2 3 3 1 2 1 3 2 1 2 3 3 0 2 2 3 4 5 5 2 2 3 6 8 12 19 12 4 3 3 6 4 8 16 17 18 19
10 11 12 12 13 13 13 14 14 15 16 16 17 18 18 18 18 18 17 17 17 13 7 6 5 4 1 4 5 4 2 4 2 6 7 6 6 3 2 1 0 1 2 3 3 3 1 1 3 3 2 1 3 3 1 1 2 4 3 2 2 2 4 1 2 2 3 6 4 1 1 4 8 6 2 11 21 14 2 4 2 1 1 8 14 16 18 19
11 12 12 13 13 14 14 14 15 15 16 16 17 18 18 18 18 17 17 16 16 12 6 5 4 2 4 6 4 2 2 4 4 7 7 7 6 4 3 1 1 2 3 3 3 3 1 0 1 3 3 1 2 4 2 1 4 6 4 1 1 2 5 2 0 3 4 5 1 1 6 6 6 2 4 16 20 14 8 5 3 2 4 9 12 16 17 17
13 13 13 14 14 15 16 16 17 16 17 17 18 18 18 19 18 18 17 16 15 10 6 5 3 2 6 5 2 2 3 3 5 6 6 7 6 4 3 2 3 4 3 3 3 3 2 1 2 3 3 1 3 4 2 3 3 4 2 1 2 3 3 2 3 4 3 4 2 5 11 5 2 2 10 19 14 8 9 7 5 5 7 10 11 14 16 16
15 15 15 15 15 16 17 17 18 19 19 18 18 18 19 19 18 18 17 16 13 7 4 5 2 4 6 4 2 3 2 3 4 5 5 5 5 4 3 3 3 5 3 3 3 2 1 3 3 2 1 2 3 2 2 3 1 0 1 2 5 5 2 1 3 2 2 4 4 8 12 3 3 2 10 8 0 2 7 7 6 7 10 11 10 12 14 16
17 17 17 17 17 17 18 18 19 20 20 20 20 19 20 20 19 18 18 17 12 5 3 4 2 5 5 3 4 3 2 3 4 4 4 4 5 5 4 4 4 5 4 3 3 3 4 7 8 3 1 2 3 2 1 1 2 2 2 5 6 5 5 5 5 3 3 3 4 7 10 4 3 5 14 4 5 4 6 7 7 9 11 11 11 11 11 14
20 20 20 19 19 19 19 20 20 21 22 22 21 21 20 20 20 19 19 18 11 5 3 2 2 5 4 3 5 5 3 4 3 3 4 4 5 5 4 4 4 5 5 2 4 6 7 10 9 2 0 2 3 1 1 1 2 1 1 5 5 5 7 6 4 2 4 2 3 3 8 8 8 14 16 4 6 4 5 7 8 10 10 9 10 9 9 12
21 21 21 21 21 21 20 20 20 21 22 22 22 22 21 20 21 20 20 17 9 4 3 2 3 5 4 2 4 7 7 6 4 3 4 5 5 5 4 4 4 5 4 4 7 8 8 9 6 2 2 2 1 1 2 2 1 1 1 3 4 6 5 4 2 2 5 2 2 2 9 8 12 18 12 6 6 5 5 9 8 8 8 8 9 9 10 11
21 21 22 22 22 22 21 20 21 21 22 22 22 22 21 21 20 20 21 16 6 4 4 3 4 6 4 3 2 6 9 7 6 5 5 7 7 5 5 5 4 5 4 7 9 8 8 7 5 4 2 1 1 3 2 2 1 1 1 1 2 4 1 4 3 4 6 1 1 3 8 11 8 12 7 5 6 6 7 10 9 8 8 8 9 9 10 11
21 22 22 22 23 23 22 21 21 21 22 22 22 21 21 20 20 20 20 12 4 4 3 3 6 5 2 4 2 5 8 7 8 8 7 8 8 6 6 7 7 8 7 8 10 9 8 7 4 3 2 1 1 3 3 2 2 0 2 3 2 3 2 2 5 5 4 2 2 5 6 13 11 4 5 4 5 6 9 11 9 10 9 9 9 10 10 10
21 22 22 23 23 23 22 21 21 21 22 22 22 21 20 19 19 19 16 7 3 4 3 3 7 5 3 2 2 4 6 7 9 10 8 9 8 6 8 9 8 8 8 8 9 9 6 4 1 1 1 2 3 3 3 4 3 2 3 5 3 4 4 1 4 3 2 2 6 9 7 11 10 1 5 4 5 6 8 11 12 12 11 11 9 9 10 9
20 21 22 22 23 23 22 21 21 20 22 22 21 21 19 18 18 15 9 4 2 2 3 3 6 5 3 1 2 3 5 7 9 9 9 8 8 9 10 7 5 6 7 7 6 4 2 2 1 1 1 1 2 2 4 6 6 2 2 4 4 5 5 4 2 3 2 3 7 10 10 14 16 9 3 6 7 7 9 13 15 14 11 10 9 9 10 10
20 21 21 22 22 22 22 21 21 20 21 21 20 20 19 17 14 8 3 3 3 2 2 2 5 3 3 3 3 2 3 5 8 9 9 8 9 12 8 4 4 5 5 3 2 1 1 0 1 3 2 2 3 5 6 7 6 4 4 5 5 5 7 7 3 2 4 4 7 9 11 17 21 19 14 8 9 9 13 16 17 15 13 11 10 10 10 11
19 21 21 21 22 22 23 21 20 19 19 20 17 16 16 12 8 4 4 4 3 2 1 3 5 2 2 2 1 1 4 6 7 8 9 8 10 10 5 5 5 4 3 2 3 3 1 1 2 3 6 7 8 10 11 8 4 5 5 5 7 6 9 8 1 2 3 4 9 13 14 17 20 20 20 13 8 10 15 16 17 15 12 11 11 11 10 12
19 20 20 20 21 23 22 20 20 18 16 17 14 11 8 3 3 2 2 3 5 4 2 3 5 3 3 1 2 3 4 5 5 6 10 9 9 8 3 3 3 2 4 3 3 2 1 4 6 9 10 8 10 13 10 4 1 3 3 4 8 7 10 7 3 4 2 4 11 14 15 18 20 19 21 16 7 11 18 17 18 15 11 11 12 11 11 13
17 19 19 19 20 21 20 19 19 16 13 13 10 6 2 1 1 2 1 4 8 5 4 3 3 6 6 1 5 7 3 3 4 5 11 11 8 6 4 4 4 5 3 1 3 2 1 6 12 14 8 2 5 8 5 1 2 4 5 5 7 7 9 5 3 3 3 3 9 11 13 17 19 19 20 18 12 16 20 18 19 19 14 12 12 12 11 12
15 17 19 20 18 18 18 18 17 14 11 9 6 3 1 1 4 3 1 5 5 4 4 2 2 8 7 3 6 7 3 3 4 5 11 10 5 5 4 5 6 4 2 3 3 2 3 10 14 6 3 5 2 3 5 6 5 4 4 4 6 5 6 4 2 4 3 3 6 7 11 16 19 20 21 22 17 16 17 18 20 19 17 15 11 10 10 10
14 16 19 19 18 17 17 16 15 11 8 6 5 3 2 2 3 3 2 4 4 2 3 3 4 6 5 4 7 9 5 6 4 6 14 13 4 2 4 7 6 2 4 8 8 5 5 8 7 3 7 6 2 3 6 4 4 6 4 5 7 3 2 5 0 3 4 4 6 9 11 14 16 17 19 19 14 12 13 16 18 17 18 18 8 5 9 11
14 15 16 18 18 16 15 15 11 7 7 6 5 4 4 3 4 3 2 3 3 3 2 4 4 5 5 3 7 12 7 4 3 4 14 15 6 3 5 6 5 3 6 10 10 9 9 4 2 5 4 6 3 3 7 6 4 6 6 8 10 5 5 6 2 3 5 4 3 8 11 11 9 10 10 6 2 7 9 10 14 15 16 13 5 5 9 12
14 13 14 17 17 17 16 12 7 8 8 5 3 3 3 4 4 3 2 3 3 2 1 4 4 5 6 4 7 9 2 2 2 2 11 12 5 5 3 2 4 8 8 8 8 10 11 3 4 5 3 4 5 5 8 8 5 5 7 12 13 8 6 3 3 4 5 3 1 4 9 8 4 6 5 2 2 6 4 5 11 12 10 8 7 8 10 11
13 12 13 15 17 18 14 6 6 11 7 2 3 2 3 4 4 2 1 3 5 2 2 4 4 6 7 4 3 4 0 2 1 3 7 7 3 3 3 3 2 5 4 7 5 6 4 1 2 4 5 5 6 6 7 8 6 4 4 7 10 8 4 2 1 2 5 4 0 2 6 9 3 6 5 3 4 6 5 7 10 9 8 7 7 8 9 10
12 12 11 12 15 16 9 3 9 10 2 2 4 1 2 3 3 2 2 4 5 4 4 1 1 4 6 2 1 4 2 1 3 3 3 3 2 1 3 6 3 1 4 4 3 3 2 3 2 4 5 6 7 7 6 10 6 3 1 1 4 5 4 4 4 5 4 4 2 3 5 11 8 8 8 6 6 7 9 13 13 11 10 8 7 8 10 9
12 12 10 9 11 12 8 6 9 5 2 5 5 2 2 2 3 2 2 5 4 4 3 1 1 2 3 1 1 2 1 1 2 2 1 0 2 1 4 8 4 4 4 4 6 2 3 5 6 8 7 7 7 2 6 12 7 0 2 2 4 4 3 4 4 5 3 4 5 7 7 9 10 6 6 4 7 10 13 15 16 14 9 6 7 8 9 9
13 12 10 8 9 10 8 7 6 4 6 7 5 3 1 3 3 1 2 5 2 3 2 2 3 2 2 3 3 1 1 1 0 0 1 1 1 1 3 4 3 4 3 3 6 1 2 2 4 6 7 6 3 3 1 8 5 3 5 5 6 5 4 2 3 4 2 4 7 8 11 7 10 5 7 1 5 11 12 13 14 12 7 5 6 6 7 7
15 13 11 9 8 8 7 5 4 5 7 6 5 3 2 3 2 2 6 5 1 1 2 2 3 3 5 6 3 2 2 1 1 2 1 2 1 1 1 0 2 3 1 2 5 1 2 1 2 3 4 2 5 5 3 1 3 6 6 4 4 3 3 1 1 1 4 7 7 11 16 12 10 2 9 6 6 11 10 10 10 9 7 6 6 6 6 6
17 14 13 11 8 7 5 2 1 2 4 5 3 1 3 2 1 6 8 2 1 1 3 3 2 4 8 6 3 3 4 2 3 5 4 3 3 2 2 3 3 2 2 4 6 2 2 2 2 2 1 3 5 4 4 4 3 4 4 2 1 2 2 2 2 2 6 7 2 5 11 14 12 5 7 6 6 10 11 10 10 9 9 7 5 5 6 6
19 16 15 14 11 9 6 4 2 4 4 2 0 2 2 2 5 7 3 2 1 4 4 3 3 5 7 4 1 3 3 2 4 7 5 4 5 6 6 6 5 3 4 6 5 2 3 4 3 2 0 3 5 4 4 2 2 3 4 4 3 3 1 3 4 4 6 6 1 2 3 9 14 11 6 5 5 9 10 7 7 8 9 7 5 5 4 4
21 18 17 17 14 12 10 8 5 5 4 1 2 1 1 5 7 4 5 3 2 2 2 1 2 3 5 3 2 3 1 1 5 4 2 2 4 6 6 4 3 3 3 4 3 2 2 1 5 5 3 5 9 8 4 4 6 8 7 6 5 4 2 5 5 3 5 4 3 4 2 6 11 10 11 14 14 12 9 8 8 6 6 4 2 3 3 3
23 20 20 21 19 15 11 9 6 4 1 2 3 2 2 9 7 4 8 9 2 2 3 3 3 3 3 2 2 3 3 3 5 5 3 3 4 6 7 7 6 3 0 2 2 3 5 5 7 9 3 8 15 10 2 5 7 8 5 3 5 5 5 6 4 4 6 4 2 4 3 5 5 2 6 12 13 11 8 9 8 6 4 0 2 1 3 5
26 24 23 24 23 20 15 11 9 5 3 3 3 2 6 12 6 2 6 6 2 1 2 2 3 4 3 2 1 3 4 3 4 5 5 6 6 6 5 8 11 6 2 3 2 3 6 7 4 4 0 8 11 4 3 6 5 4 2 1 4 4 6 4 3 2 2 5 4 5 5 7 4 1 3 2 4 9 11 9 7 8 8 4 2 5 6 5
29 27 26 27 29 26 20 16 12 9 6 5 4 5 10 11 4 2 3 3 3 4 5 1 3 5 5 3 3 4 2 2 3 5 5 6 6 5 3 4 10 13 9 6 3 3 4 4 3 3 2 3 2 2 1 1 2 4 4 5 2 1 3 4 2 2 2 6 7 3 6 10 6 4 7 7 5 9 11 11 11 11 9 6 5 7 6 6
28 25 23 25 30 28 23 20 16 11 6 4 6 8 9 8 4 3 2 2 1 4 6 5 5 6 6 4 5 6 4 2 5 5 4 4 5 6 6 3 6 15 17 10 3 4 5 3 2 3 1 1 3 3 1 3 1 4 4 4 2 2 1 2 3 1 2 7 6 5 12 13 10 6 5 8 9 9 11 12 11 10 7 6 8 8 7 7
27 19 16 24 33 31 25 22 19 12 4 2 9 11 6 3 2 2 2 2 1 3 5 7 5 5 6 5 4 6 7 5 6 6 5 4 4 6 10 6 6 15 20 14 5 3 3 4 2 1 1 2 1 2 2 1 1 1 2 1 1 2 3 3 2 3 5 7 6 11 16 15 13 7 3 7 12 12 13 11 9 10 10 9 10 9 8 8
22 9 7 18 32 32 28 26 19 9 3 5 12 11 4 3 2 1 2 2 1 3 6 7 4 3 5 4 2 4 8 7 7 6 5 5 4 5 10 7 7 12 18 16 9 3 2 4 3 2 2 1 2 4 6 5 3 1 2 1 1 2 3 3 2 2 5 6 7 13 16 13 7 3 5 8 12 13 12 10 10 12 12 11 10 9 8 8
14 3 2 17 33 34 32 27 15 7 7 8 11 9 3 2 2 1 3 3 2 2 5 7 5 5 5 3 1 3 6 6 6 6 5 5 4 4 8 7 4 6 8 9 8 2 3 3 4 1 2 2 4 7 9 9 7 5 5 6 5 2 0 2 2 1 3 6 6 9 13 13 3 6 5 5 8 10 10 10 11 10 9 10 9 8 8 8
8 3 3 24 40 39 31 19 8 7 7 6 10 10 6 3 3 3 2 3 4 3 1 3 5 7 7 5 2 2 4 4 5 6 5 6 6 4 8 10 7 6 6 4 6 4 3 4 5 3 3 5 7 6 5 3 3 5 7 8 9 7 4 3 5 3 2 5 7 6 10 15 4 6 3 2 4 7 9 10 10 7 8 10 9 10 10 9
5 4 8 32 47 41 26 10 7 7 6 7 7 6 5 4 5 6 3 3 3 2 2 2 5 7 7 5 2 3 4 4 5 6 5 6 9 7 7 8 8 9 8 4 5 4 2 1 3 5 5 5 4 1 2 0 1 1 4 4 5 5 6 7 6 3 2 4 6 3 6 13 3 6 2 2 4 5 7 9 7 6 9 10 10 10 10 9
4 2 10 38 53 39 16 5 5 6 7 7 5 4 5 3 3 4 4 5 4 2 1 3 4 6 7 3 1 3 5 5 6 7 3 4 9 8 5 7 8 7 5 3 2 2 2 1 4 6 4 3 1 3 2 0 2 3 5 5 5 6 8 6 3 1 1 6 7 2 5 13 4 5 1 3 3 3 4 5 6 7 7 7 8 8 8 8
3 1 3 29 49 35 12 6 7 9 9 7 8 10 8 4 6 8 6 7 6 4 5 7 4 5 6 2 2 5 5 5 8 8 6 6 5 1 3 9 10 7 5 4 4 5 4 4 5 5 5 6 4 3 3 2 4 5 5 7 9 10 9 3 2 0 5 13 13 5 8 14 5 2 2 2 2 3 3 3 4 5 5 5 5 6 7 8
2 1 2 13 29 21 7 5 7 9 11 11 13 14 10 5 8 14 12 9 8 6 6 6 4 4 5 4 6 9 8 9 10 6 5 7 3 2 1 5 10 11 5 0 3 6 5 5 7 8 9 9 10 11 5 3 5 4 3 9 12 14 14 8 3 5 9 14 13 8 12 15 11 10 9 5 4 4 4 4 4 5 6 6 6 6 7 7
1 3 1 3 10 9 5 3 3 5 10 12 11 10 13 12 8 9 10 10 11 11 6 1 1 3 5 6 9 12 13 14 10 4 4 6 2 1 1 2 7 7 1 4 4 5 2 4 10 14 14 13 14 16 6 6 6 6 6 12 14 16 18 12 7 11 10 5 7 14 19 18 17 21 21 15 10 8 7 7 6 6 7 7 7 7 7 8
2 4 5 4 5 7 6 5 5 5 8 10 7 6 13 17 10 6 8 10 11 11 7 3 5 7 7 9 12 13 15 16 10 8 13 12 5 1 1 0 3 2 3 2 2 3 2 5 12 16 19 18 18 22 16 7 8 9 8 12 14 15 17 15 16 16 6 1 8 20 24 19 16 20 25 26 21 13 11 13 10 7 8 9 8 9 10 11
4 3 5 7 7 7 8 11 13 12 10 9 8 8 14 17 14 10 10 8 6 8 7 6 11 17 18 17 14 12 14 12 9 11 15 14 9 5 1 1 2 2 3 2 2 2 3 6 10 14 18 20 20 26 26 19 15 12 11 12 13 15 19 21 23 18 8 8 16 21 24 21 16 20 27 28 22 13 11 16 14 7 6 7 9 11 13 12
5 3 2 5 7 7 12 18 19 19 17 14 10 11 15 18 17 14 10 6 5 10 12 12 15 21 25 23 17 13 12 11 11 13 13 12 12 9 5 5 2 1 3 3 1 1 2 6 13 15 17 20 21 23 24 22 19 17 16 13 13 18 22 21 19 19 19 22 21 19 24 23 18 24 29 24 18 13 11 15 14 8 7 8 10 12 12 11
5 4 2 4 5 5 9 14 15 15 16 15 12 12 15 19 19 15 11 11 11 10 13 18 22 22 23 23 19 18 18 17 18 17 13 12 12 9 7 8 4 1 1 3 2 2 4 8 13 12 12 15 19 22 24 22 20 19 18 16 19 24 24 20 20 20 22 23 22 20 20 18 19 27 26 20 19 18 18 21 21 17 15 14 13 13 12 11
10 10 7 5 5 4 6 8 9 11 11 12 12 13 16 20 20 17 15 16 18 15 14 21 26 22 18 18 18 20 23 23 24 24 20 17 14 10 7 7 7 4 3 4 3 3 5 8 8 8 9 11 16 22 24 21 19 17 15 18 25 26 22 22 24 22 19 19 21 19 14 13 21 24 20 19 22 22 22 22 22 20 15 13 14 16 16 13
9 10 7 6 4 4 6 6 8 10 10 10 14 15 16 18 20 19 14 11 17 21 19 20 21 17 14 16 20 24 26 25 25 24 21 16 11 8 6 7 10 9 6 6 5 4 6 7 7 8 9 10 16 20 18 14 12 11 14 24 30 27 24 26 27 26 24 20 17 15 12 15 19 18 18 22 23 21 19 17 20 20 13 8 12 16 18 16
Wind_Direction
15 14 13 12 9 8 9 10 11 12 13 14 15 16 18 20 20 19 14 12 15 14 5 357 324 252 240 239 229 235 323 333 311 260 228 241 227 209 224 228 251 263 284 303 203 176 179 204 194 176 180 178 338 46 142 57 77 226 225 237 250 232 220 190 191 193 303 6 161 174 192 212 204 167 168 168 213 220 208 214 217 233 240 224 108 90 152 157
10 9 9 9 8 7 6 6 7 7 8 10 11 11 13 14 15 15 13 9 9 13 8 359 347 281 240 234 233 240 288 318 299 259 244 242 221 204 213 228 242 235 234 258 205 191 204 214 176 169 188 196 342 309 180 146 265 223 196 247 250 225 211 192 210 208 213 293 140 179 197 217 223 153 155 212 215 201 223 224 210 235 234 208 181 161 159 163
4 3 3 3 4 4 4 4 3 3 4 5 7 8 8 9 10 9 10 7 3 6 4 359 351 316 252 232 233 243 281 309 294 254 229 220 208 200 206 250 256 230 210 220 199 201 221 178 160 164 180 203 57 348 229 25 257 218 209 247 242 197 262 223 220 222 208 242 152 182 184 214 234 132 154 224 235 209 224 225 200 223 231 208 175 162 165 171
359 356 357 357 358 358 359 0 359 359 359 0 2 4 5 5 6 5 5 5 1 358 356 357 352 326 269 237 226 235 289 294 276 196 190 197 201 207 230 278 294 248 222 197 164 156 149 139 146 157 182 190 91 291 252 30 344 183 220 263 86 118 254 204 200 218 188 247 248 167 156 216 216 149 189 216 242 240 232 224 213 226 230 198 165 163 172 178
352 350 351 351 351 352 353 354 354 354 354 356 357 358 1 2 2 1 360 2 0 355 351 350 352 344 284 239 212 212 274 271 217 162 176 183 195 206 241 274 312 243 208 205 144 133 132 130 138 141 189 192 157 220 208 67 15 206 219 305 80 170 243 167 168 192 153 184 221 171 179 204 141 178 217 210 233 250 243 220 221 235 237 175 163 168 174 183
343 343 344 344 345 345 345 348 348 347 348 350 352 354 356 357 359 359 356 358 358 353 347 345 352 359 312 214 193 190 229 260 134 174 186 182 195 202 254 287 349 212 206 218 158 145 126 128 183 178 188 189 183 214 139 90 336 252 224 209 210 215 246 138 129 172 168 191 198 193 208 152 166 224 220 217 235 245 65 82 221 253 259 158 160 169 176 187
335 336 335 337 337 338 339 340 341 340 342 344 346 349 351 353 355 356 355 355 355 350 345 346 346 356 77 162 166 158 236 270 224 201 205 197 203 213 259 311 318 209 191 207 182 171 127 133 205 184 186 170 193 205 106 122 212 260 251 192 212 225 239 241 90 184 194 217 209 140 245 198 218 237 208 228 239 241 141 93 87 14 189 163 165 175 185 190
329 328 327 329 329 331 333 332 335 335 336 337 340 344 346 348 349 353 352 353 353 346 343 340 335 6 147 153 158 172 245 254 219 212 212 206 209 221 250 279 241 187 167 192 166 170 178 34 171 182 214 186 189 180 138 221 199 225 248 190 170 221 243 256 48 228 210 234 232 174 238 225 221 271 282 248 247 241 213 157 138 149 167 181 187 187 190 194
325 324 322 323 323 325 326 328 330 329 331 333 334 338 341 342 344 347 347 351 352 343 344 338 316 161 163 156 162 241 234 222 210 211 207 208 214 222 236 238 207 186 167 130 123 170 198 219 170 200 234 86 187 175 156 244 212 215 240 192 219 249 257 251 245 226 209 241 182 225 249 231 170 330 270 253 255 241 202 182 179 185 195 199 199 196 194 196
325 323 321 320 320 321 321 323 324 326 328 328 330 334 337 338 340 342 341 346 347 332 336 337 293 173 172 166 185 243 232 202 208 209 208 212 214 218 222 215 198 193 183 116 130 161 151 179 146 163 237 106 186 172 154 237 329 346 278 280 257 267 276 235 251 219 228 253 196 237 263 257 110 260 259 250 303 172 174 182 193 201 217 211 204 203 200 202
326 324 323 321 321 321 321 321 322 323 322 325 328 329 334 335 335 337 336 340 340 312 309 337 274 188 183 196 217 231 205 195 210 208 208 207 204 210 207 205 200 193 185 123 134 131 123 152 136 124 269 134 174 177 201 237 15 22 312 280 253 261 259 225 242 241 233 243 197 239 267 261 102 229 245 213 99 153 171 188 198 210 224 217 211 207 203 209
326 325 324 323 322 322 323 323 322 321 320 322 323 326 332 332 332 332 331 336 333 288 275 323 248 191 178 232 236 228 213 199 208 209 208 201 192 195 191 194 192 192 198 157 141 138 135 148 146 137 7 156 182 194 191 115 14 346 304 285 262 269 262 212 211 217 205 221 174 230 268 234 187 228 241 165 116 152 175 208 206 213 224 218 215 211 209 212
324 324 323 323 323 322 323 324 323 321 319 319 320 324 329 329 330 327 328 332 322 270 253 268 231 185 177 246 231 220 223 212 215 219 201 190 175 171 166 166 171 181 199 172 146 136 145 156 156 97 86 207 235 108 138 103 347 256 166 292 285 277 260 174 133 156 185 199 149 222 282 251 198 223 235 119 136 165 195 226 216 214 220 217 216 214 216 210
320 320 319 321 321 321 322 323 323 321 319 318 319 321 326 328 326 322 325 327 308 251 250 245 200 170 182 256 222 212 216 213 218 209 187 181 164 143 133 130 139 145 144 146 137 129 144 150 135 111 93 323 66 131 169 146 223 242 178 239 262 271 259 132 141 173 181 160 164 217 273 277 243 217 204 126 164 188 224 234 224 219 213 217 218 216 219 209
318 316 316 317 317 317 319 321 322 321 318 317 318 320 324 326 323 320 320 318 283 247 247 215 185 167 237 259 220 209 208 209 213 204 195 185 168 140 131 131 119 116 116 124 126 120 126 131 132 128 95 3 170 189 238 223 186 189 254 241 196 237 259 143 159 190 201 113 182 217 250 276 280 221 138 119 171 200 240 243 233 228 217 218 219 216 221 213
316 315 314 314 314 314 316 318 318 318 316 315 317 319 322 323 319 315 312 304 257 233 209 198 185 183 280 257 170 207 208 213 211 204 196 184 184 167 140 130 110 106 110 112 117 112 107 106 69 336 130 202 215 227 267 262 226 178 244 263 239 232 275 245 152 180 240 136 193 223 251 277 279 208 112 131 179 198 239 251 242 234 223 220 219 216 215 211
317 316 315 314 312 312 313 314 315 315 312 311 314 316 320 322 314 308 304 272 225 196 186 201 171 183 268 181 174 225 200 202 198 193 189 182 190 174 145 121 94 102 109 109 119 116 70 66 92 244 181 192 213 212 255 264 250 201 196 256 254 239 270 275 175 133 155 205 221 221 237 261 266 265 223 171 178 204 240 253 250 241 227 219 218 216 208 210
320 318 317 315 313 312 312 313 315 313 309 308 313 315 319 319 308 299 269 176 127 124 176 174 159 201 246 177 199 214 144 173 178 177 180 168 170 171 155 125 124 131 122 112 164 185 317 68 216 251 213 196 196 193 224 248 258 254 230 249 268 243 242 253 244 151 149 198 239 228 233 254 264 271 269 230 180 213 247 256 259 250 234 225 220 217 208 209
320 320 320 318 315 313 315 318 318 314 310 307 309 314 316 315 301 265 196 162 150 201 228 183 187 232 273 212 216 101 124 148 161 172 171 155 160 168 152 121 134 150 153 180 191 167 199 194 200 248 229 212 201 203 225 243 259 268 261 260 268 260 254 255 200 135 180 218 242 241 244 256 264 270 274 264 191 217 251 254 260 255 238 233 225 217 206 212
321 323 322 319 316 315 320 325 322 318 314 312 323 325 312 309 302 262 179 196 221 249 325 193 203 267 294 244 135 146 148 155 174 185 176 168 158 156 141 118 127 196 202 204 169 138 243 226 223 238 234 214 205 211 230 273 334 260 259 250 251 255 266 266 113 113 170 241 249 247 251 260 266 268 272 271 225 234 255 252 257 256 240 236 229 216 203 216
325 329 328 324 321 319 323 328 325 322 316 317 333 330 284 160 272 297 307 247 237 241 274 241 231 272 270 197 154 160 144 188 207 188 179 173 157 166 174 163 189 208 204 132 101 117 206 227 237 241 237 180 202 210 207 203 191 233 242 251 255 247 262 275 98 127 157 223 255 254 261 262 262 265 268 267 241 241 254 254 260 261 253 242 226 216 208 216
325 334 338 333 326 323 325 328 326 321 315 314 317 288 264 257 250 248 295 273 256 222 244 263 268 267 258 223 192 165 140 236 215 181 177 165 167 204 171 169 208 211 141 124 147 183 209 237 245 238 109 93 95 169 192 211 206 217 229 248 261 255 275 288 95 118 161 228 268 273 277 271 265 263 260 259 250 245 251 252 259 264 263 256 232 211 208 212
316 331 341 339 332 327 329 331 326 321 319 320 315 280 277 274 207 167 182 275 283 218 202 210 224 244 238 231 203 173 195 229 210 188 175 164 171 205 170 191 211 182 163 189 196 197 212 248 257 99 117 148 123 136 184 206 207 210 207 228 247 247 286 270 166 108 186 230 287 291 282 270 262 258 254 255 257 260 259 255 258 261 258 259 250 196 201 215
306 321 338 344 337 333 337 335 332 337 330 324 314 282 254 217 152 143 220 273 276 243 216 206 216 232 222 212 183 184 211 225 209 193 173 171 162 145 193 203 188 209 217 202 200 221 236 245 89 94 144 183 175 166 188 205 218 216 214 227 244 245 230 246 342 341 242 218 278 295 287 266 238 237 250 254 268 270 262 255 259 259 253 253 250 206 211 223
296 309 333 343 337 336 337 335 349 356 339 331 312 271 221 184 143 110 291 271 247 258 266 203 204 218 196 140 157 177 213 228 215 167 170 183 166 139 184 172 196 230 213 176 191 238 249 221 122 124 133 177 190 198 201 206 222 230 222 226 241 256 249 243 24 338 284 242 204 328 310 285 182 180 238 237 253 263 239 225 245 253 253 238 223 222 222 225
287 298 325 337 335 336 337 337 352 346 341 360 336 258 181 175 157 117 310 272 246 207 150 188 186 183 169 135 143 155 218 243 181 105 165 195 193 159 183 143 206 248 171 145 187 242 253 74 110 161 157 173 207 232 205 187 216 245 224 223 233 245 255 232 169 258 276 281 339 24 305 286 214 177 205 191 236 258 242 243 247 244 244 230 209 207 216 219
280 285 308 328 333 338 344 339 333 339 353 356 343 253 199 196 199 250 284 275 255 169 135 213 208 168 161 142 170 163 214 239 93 113 166 189 188 163 211 189 169 211 154 148 211 221 144 113 129 171 174 186 217 243 186 169 209 247 74 83 187 196 206 197 206 234 271 316 301 191 235 276 269 208 201 192 207 248 258 262 267 256 240 233 217 201 210 214
275 276 294 316 326 332 336 320 323 337 360 349 350 287 245 218 238 285 264 263 267 113 121 192 104 130 128 95 220 169 296 319 125 165 53 39 196 132 226 218 181 164 169 193 220 219 112 161 174 169 179 205 216 242 158 174 203 276 74 68 103 126 159 169 210 247 279 325 272 200 187 266 272 190 180 210 206 233 250 251 259 259 243 229 226 210 207 208
271 269 279 295 312 317 313 313 314 297 311 338 344 314 239 199 243 352 233 255 254 97 88 121 134 146 110 137 209 172 12 325 100 149 76 169 217 67 233 227 136 146 167 230 238 309 63 211 202 169 184 210 180 55 127 193 199 133 127 96 85 85 85 124 235 257 270 273 252 196 168 245 278 174 144 164 205 222 242 243 247 255 252 232 222 211 203 198
267 263 263 276 298 304 299 307 306 302 316 322 319 317 186 201 230 209 230 248 244 102 73 133 172 159 135 155 204 197 192 254 88 116 120 144 142 42 302 232 105 150 167 280 265 266 96 53 312 217 204 174 105 75 27 37 122 140 146 112 100 111 93 120 243 269 264 258 234 198 183 210 274 200 146 163 186 197 220 236 243 254 256 234 211 200 196 189
263 256 248 254 268 281 291 281 257 354 348 322 315 245 196 197 167 223 231 249 304 184 136 175 179 142 162 178 191 167 180 209 154 168 174 156 158 142 174 188 151 160 213 248 251 222 148 179 216 218 131 103 108 94 56 58 118 156 158 145 183 207 140 176 178 156 245 258 224 198 190 202 243 244 155 160 172 192 210 223 231 239 242 231 203 191 189 178
259 251 240 242 250 260 263 238 247 334 333 332 311 198 200 211 222 225 221 49 250 198 166 180 177 175 191 205 222 159 163 190 178 183 176 161 183 184 199 198 162 184 232 220 226 209 195 206 165 111 218 185 161 125 92 102 184 196 172 161 224 259 250 238 220 184 234 253 116 109 175 215 243 252 220 190 190 214 224 226 227 227 229 223 187 175 170 156
253 246 232 230 235 245 255 252 264 304 319 72 159 181 117 232 233 178 158 197 212 168 100 95 134 167 167 170 202 163 136 209 165 180 187 149 201 212 233 242 183 245 249 185 200 210 225 240 137 163 228 195 186 186 190 188 182 189 181 172 208 228 239 249 239 227 256 256 134 126 156 243 261 262 225 213 213 215 217 228 237 237 238 232 150 145 151 164
251 240 226 224 230 236 245 249 247 256 277 129 170 119 147 236 240 136 183 211 209 44 48 61 90 135 164 195 216 167 209 223 148 166 198 159 199 221 226 225 211 243 335 166 208 195 237 266 170 172 172 166 189 207 184 121 157 187 181 175 219 210 213 245 258 267 283 297 203 166 189 243 264 273 208 213 217 210 208 223 231 249 261 312 64 176 196 198
248 234 224 220 220 221 221 229 229 210 174 153 165 155 206 234 239 167 209 200 171 56 59 50 119 158 221 250 259 223 223 223 142 155 193 185 202 209 197 203 195 180 146 195 213 166 241 270 162 147 358 161 181 212 79 103 152 179 114 186 235 218 209 246 303 286 315 313 260 190 214 248 244 181 150 145 210 209 217 222 215 235 238 207 226 235 214 210
237 223 218 212 210 211 209 215 213 187 172 163 168 202 224 238 226 177 212 162 163 146 121 156 163 174 229 221 212 225 212 223 168 167 205 211 230 223 188 204 187 182 186 186 189 173 232 278 119 107 310 161 141 353 82 152 190 155 160 201 214 4 221 230 268 86 97 274 265 219 251 270 271 231 173 156 190 203 215 222 213 223 223 198 229 236 217 218
222 212 210 206 206 204 200 205 198 178 175 174 197 218 226 236 214 171 180 109 132 136 144 206 198 176 211 214 206 191 165 198 179 181 204 195 235 210 184 237 188 188 203 200 210 227 218 259 182 150 187 98 360 337 59 350 359 142 189 202 126 45 314 243 256 259 220 254 270 269 270 277 276 264 152 158 199 207 216 223 217 224 221 210 233 236 225 225
214 208 213 211 205 197 192 193 180 158 132 185 227 241 237 221 183 128 159 134 132 165 183 223 209 175 203 214 204 164 167 189 164 178 210 189 226 182 162 206 193 192 210 208 223 252 197 237 242 113 37 85 41 260 167 66 28 91 271 256 105 214 188 167 217 239 241 247 269 275 276 277 263 251 136 169 200 209 219 220 215 222 218 218 233 234 227 226
210 204 237 209 196 190 184 176 161 143 144 192 225 240 238 224 217 163 207 187 118 178 209 237 228 206 218 202 165 153 180 193 162 176 213 194 217 174 159 191 199 203 209 196 204 232 162 231 243 37 341 106 137 222 196 179 152 60 284 241 287 264 194 179 186 208 240 244 267 278 280 277 258 179 157 190 195 201 212 212 214 220 216 216 225 224 221 221
199 204 255 180 181 182 174 162 151 157 185 200 223 229 226 266 259 237 225 209 216 211 218 233 221 222 230 196 186 191 196 212 186 190 218 194 210 208 177 185 188 203 201 188 212 227 93 234 233 91 305 218 189 200 198 195 178 177 203 189 192 205 61 282 245 180 237 243 251 265 271 272 269 107 149 191 188 196 200 206 216 215 215 221 222 220 223 224
177 253 194 167 172 169 158 153 165 180 191 220 237 238 241 272 270 260 247 181 225 271 260 227 221 229 231 215 224 189 186 226 205 204 228 203 215 227 189 192 177 136 125 164 225 216 152 211 218 187 202 221 224 203 184 205 185 187 199 190 193 182 152 223 234 201 202 241 238 237 263 268 263 93 117 162 169 198 193 203 216 211 217 224 220 221 221 220
177 252 169 166 168 160 151 165 193 181 205 221 227 241 235 240 248 244 235 169 213 280 342 285 249 238 235 224 215 174 180 218 209 210 235 215 217 222 188 185 169 139 136 162 208 204 156 153 218 227 228 234 251 137 119 235 36 229 241 220 202 187 181 206 221 208 168 238 250 242 267 267 263 79 66 182 167 198 191 196 205 201 214 217 213 220 220 220
199 223 158 168 168 159 153 189 183 190 224 219 229 251 219 219 254 240 221 198 205 211 219 276 272 247 246 234 172 204 206 221 213 203 228 238 228 227 182 153 149 148 160 167 165 151 108 148 219 239 267 278 319 88 107 142 134 200 235 214 197 207 208 212 232 248 194 229 232 176 246 263 277 80 241 226 164 192 192 192 200 202 215 220 214 218 219 222
194 119 135 174 173 166 167 194 186 205 220 215 231 235 227 234 240 237 224 195 193 183 204 233 241 231 236 191 191 230 211 220 233 215 215 238 242 233 151 159 162 175 201 196 172 168 175 196 202 217 250 256 244 199 179 174 188 216 225 193 198 211 206 215 340 306 244 241 233 212 244 257 268 100 201 185 157 227 238 222 224 218 213 218 221 222 222 224
172 115 34 188 186 184 192 195 188 203 211 217 226 226 226 235 237 239 237 218 208 195 204 232 227 215 223 196 224 238 218 222 240 232 219 237 254 29 45 188 187 197 214 185 147 174 185 189 186 202 223 228 233 235 221 146 179 220 212 187 197 203 199 200 214 211 235 241 226 223 247 256 273 277 259 221 178 211 234 234 240 244 238 232 231 225 220 220
201 197 132 189 209 223 244 235 203 198 205 215 225 223 223 230 242 239 230 230 229 215 205 223 180 211 220 207 228 240 232 231 236 244 253 245 233 41 342 231 214 216 15 54 133 164 166 206 200 210 223 224 234 246 241 112 153 199 195 190 198 205 203 203 218 224 229 233 220 234 246 255 271 275 274 267 242 217 223 230 216 215 227 228 231 235 229 224
228 213 175 161 212 233 243 248 237 215 202 201 199 201 215 225 238 226 205 217 225 215 211 220 211 220 222 214 227 238 236 233 225 228 245 247 243 311 20 267 255 280 41 55 200 163 138 228 218 221 232 235 244 255 250 210 196 203 188 192 201 208 207 210 225 227 209 63 247 243 247 255 264 269 274 273 262 246 249 259 251 230 221 213 218 233 234 233
234 232 177 174 194 208 215 223 226 223 212 197 195 208 218 222 224 219 210 211 214 200 197 216 218 221 226 225 228 238 242 243 236 231 242 246 241 243 278 229 237 195 167 201 279 174 177 233 232 233 243 244 248 255 254 249 240 227 212 205 201 206 209 214 228 231 212 226 244 250 257 263 265 262 262 264 263 260 263 269 267 247 208 196 212 230 232 228
245 267 213 202 210 198 200 209 216 219 214 208 211 215 221 225 223 219 210 197 212 207 202 219 223 219 225 227 225 233 236 235 240 235 233 240 238 235 240 239 236 126 177 188 214 190 192 240 239 239 249 249 248 253 255 256 256 248 239 230 222 226 223 219 232 236 226 232 244 255 262 265 265 261 258 259 268 277 276 274 269 248 215 210 222 235 235 225
250 280 286 237 240 219 210 213 214 218 215 211 216 215 219 228 228 225 214 200 212 212 200 220 231 225 224 223 221 229 229 226 238 239 228 228 232 226 225 224 212 62 193 194 211 224 212 233 241 244 250 250 250 254 254 254 257 256 254 252 250 250 245 237 239 237 233 240 247 250 256 262 259 256 257 265 276 278 274 272 271 266 256 249 249 251 247 233
265 285 299 282 257 218 217 219 209 219 219 208 214 219 220 227 228 230 230 214 214 219 204 215 229 232 231 226 222 230 230 225 231 235 229 227 223 213 214 209 187 175 192 202 203 188 203 231 243 243 248 246 244 248 250 250 254 258 260 256 250 249 248 244 243 242 241 247 250 248 247 246 248 253 262 268 267 266 265 267 269 267 258 253 257 260 260 253
281 287 297 296 281 201 212 231 215 219 222 208 213 218 220 226 226 230 241 225 215 225 224 219 226 232 237 234 227 229 231 229 231 235 237 240 233 213 210 198 183 180 185 201 208 187 192 219 230 227 239 243 238 244 249 249 251 246 234 237 240 242 247 249 250 249 246 244 246 246 240 243 254 263 266 262 259 259 260 263 266 265 260 254 257 258 260 260